Year,Month,Day,Hour,Minute,Value (Times are PST for temperature in C)
2015,06,06,00,00,20.30
2015,06,06,00,01,20.30
2015,06,06,00,02,20.30
2015,06,06,00,03,20.30
2015,06,06,00,04,20.20
2015,06,06,00,05,20.20
2015,06,06,00,06,20.30
2015,06,06,00,07,20.30
2015,06,06,00,08,20.30
2015,06,06,00,09,20.30
2015,06,06,00,10,20.30
2015,06,06,00,11,20.30
2015,06,06,00,12,20.30
2015,06,06,00,13,20.30
2015,06,06,00,14,20.30
2015,06,06,00,15,20.30
2015,06,06,00,16,20.20
2015,06,06,00,17,20.20
2015,06,06,00,18,20.20
2015,06,06,00,19,20.20
2015,06,06,00,20,20.20
2015,06,06,00,21,20.20
2015,06,06,00,22,20.20
2015,06,06,00,23,20.20
2015,06,06,00,24,20.10
2015,06,06,00,25,20.10
2015,06,06,00,26,20.10
2015,06,06,00,27,20.10
2015,06,06,00,28,20.00
2015,06,06,00,29,20.00
2015,06,06,00,30,20.00
2015,06,06,00,31,19.90
2015,06,06,00,32,19.90
2015,06,06,00,33,19.90
2015,06,06,00,34,19.90
2015,06,06,00,35,19.90
2015,06,06,00,36,19.90
2015,06,06,00,37,19.90
2015,06,06,00,38,19.90
2015,06,06,00,39,19.90
2015,06,06,00,40,19.80
2015,06,06,00,41,19.90
2015,06,06,00,42,19.90
2015,06,06,00,43,19.90
2015,06,06,00,44,19.90
2015,06,06,00,45,19.90
2015,06,06,00,46,19.90
2015,06,06,00,47,19.90
2015,06,06,00,48,19.90
2015,06,06,00,49,19.90
2015,06,06,00,50,19.90
2015,06,06,00,51,19.90
2015,06,06,00,52,19.90
2015,06,06,00,53,19.90
2015,06,06,00,54,19.90
2015,06,06,00,55,19.90
2015,06,06,00,56,19.80
2015,06,06,00,57,19.80
2015,06,06,00,58,19.80
2015,06,06,00,59,19.80
2015,06,06,01,00,19.70
2015,06,06,01,01,19.70
2015,06,06,01,02,19.70
2015,06,06,01,03,19.60
2015,06,06,01,04,19.60
2015,06,06,01,05,19.60
2015,06,06,01,06,19.50
2015,06,06,01,07,19.50
2015,06,06,01,08,19.40
2015,06,06,01,09,19.40
2015,06,06,01,10,19.40
2015,06,06,01,11,19.30
2015,06,06,01,12,19.30
2015,06,06,01,13,19.30
2015,06,06,01,14,19.20
2015,06,06,01,15,19.10
2015,06,06,01,16,19.10
2015,06,06,01,17,19.00
2015,06,06,01,18,18.90
2015,06,06,01,19,18.90
2015,06,06,01,20,18.80
2015,06,06,01,21,18.80
2015,06,06,01,22,18.70
2015,06,06,01,23,18.70
2015,06,06,01,24,18.70
2015,06,06,01,25,18.70
2015,06,06,01,26,18.60
2015,06,06,01,27,18.60
2015,06,06,01,28,18.60
2015,06,06,01,29,18.60
2015,06,06,01,30,18.60
2015,06,06,01,31,18.60
2015,06,06,01,32,18.60
2015,06,06,01,33,18.70
2015,06,06,01,34,18.70
2015,06,06,01,35,18.70
2015,06,06,01,36,18.70
2015,06,06,01,37,18.70
2015,06,06,01,38,18.70
2015,06,06,01,39,18.70
2015,06,06,01,40,18.70
2015,06,06,01,41,18.70
2015,06,06,01,42,18.70
2015,06,06,01,43,18.70
2015,06,06,01,44,18.70
2015,06,06,01,45,18.70
2015,06,06,01,46,18.70
2015,06,06,01,47,18.60
2015,06,06,01,48,18.60
2015,06,06,01,49,18.60
2015,06,06,01,50,18.50
2015,06,06,01,51,18.50
2015,06,06,01,52,18.40
2015,06,06,01,53,18.40
2015,06,06,01,54,18.40
2015,06,06,01,55,18.40
2015,06,06,01,56,18.40
2015,06,06,01,57,18.40
2015,06,06,01,58,18.30
2015,06,06,01,59,18.30
2015,06,06,02,00,18.30
2015,06,06,02,01,18.30
2015,06,06,02,02,18.30
2015,06,06,02,03,18.30
2015,06,06,02,04,18.30
2015,06,06,02,05,18.30
2015,06,06,02,06,18.30
2015,06,06,02,07,18.30
2015,06,06,02,08,18.30
2015,06,06,02,09,18.30
2015,06,06,02,10,18.30
2015,06,06,02,11,18.30
2015,06,06,02,12,18.40
2015,06,06,02,13,18.40
2015,06,06,02,14,18.40
2015,06,06,02,15,18.40
2015,06,06,02,16,18.40
2015,06,06,02,17,18.40
2015,06,06,02,18,18.40
2015,06,06,02,19,18.50
2015,06,06,02,20,18.50
2015,06,06,02,21,18.50
2015,06,06,02,22,18.50
2015,06,06,02,23,18.60
2015,06,06,02,24,18.60
2015,06,06,02,25,18.60
2015,06,06,02,26,18.60
2015,06,06,02,27,18.60
2015,06,06,02,28,18.60
2015,06,06,02,29,18.60
2015,06,06,02,30,18.70
2015,06,06,02,31,18.70
2015,06,06,02,32,18.70
2015,06,06,02,33,18.80
2015,06,06,02,34,18.80
2015,06,06,02,35,18.80
2015,06,06,02,36,18.80
2015,06,06,02,37,18.80
2015,06,06,02,38,18.80
2015,06,06,02,39,18.80
2015,06,06,02,40,18.80
2015,06,06,02,41,18.80
2015,06,06,02,42,18.80
2015,06,06,02,43,18.80
2015,06,06,02,44,18.70
2015,06,06,02,45,18.70
2015,06,06,02,46,18.70
2015,06,06,02,47,18.70
2015,06,06,02,48,18.70
2015,06,06,02,49,18.70
2015,06,06,02,50,18.70
2015,06,06,02,51,18.70
2015,06,06,02,52,18.70
2015,06,06,02,53,18.70
2015,06,06,02,54,18.60
2015,06,06,02,55,18.60
2015,06,06,02,56,18.60
2015,06,06,02,57,18.60
2015,06,06,02,58,18.60
2015,06,06,02,59,18.60
2015,06,06,03,00,18.60
2015,06,06,03,01,18.50
2015,06,06,03,02,18.50
2015,06,06,03,03,18.50
2015,06,06,03,04,18.50
2015,06,06,03,05,18.50
2015,06,06,03,06,18.40
2015,06,06,03,07,18.40
2015,06,06,03,08,18.40
2015,06,06,03,09,18.40
2015,06,06,03,10,18.50
2015,06,06,03,11,18.50
2015,06,06,03,12,18.50
2015,06,06,03,13,18.50
2015,06,06,03,14,18.50
2015,06,06,03,15,18.50
2015,06,06,03,16,18.50
2015,06,06,03,17,18.50
2015,06,06,03,18,18.40
2015,06,06,03,19,18.40
2015,06,06,03,20,18.40
2015,06,06,03,21,18.40
2015,06,06,03,22,18.40
2015,06,06,03,23,18.40
2015,06,06,03,24,18.40
2015,06,06,03,25,18.40
2015,06,06,03,26,18.40
2015,06,06,03,27,18.40
2015,06,06,03,28,18.40
2015,06,06,03,29,18.40
2015,06,06,03,30,18.40
2015,06,06,03,31,18.40
2015,06,06,03,32,18.40
2015,06,06,03,33,18.30
2015,06,06,03,34,18.30
2015,06,06,03,35,18.30
2015,06,06,03,36,18.30
2015,06,06,03,37,18.30
2015,06,06,03,38,18.30
2015,06,06,03,39,18.30
2015,06,06,03,40,18.30
2015,06,06,03,41,18.30
2015,06,06,03,42,18.20
2015,06,06,03,43,18.20
2015,06,06,03,44,18.20
2015,06,06,03,45,18.10
2015,06,06,03,46,18.10
2015,06,06,03,47,18.00
2015,06,06,03,48,18.00
2015,06,06,03,49,18.00
2015,06,06,03,50,17.90
2015,06,06,03,51,17.90
2015,06,06,03,52,17.90
2015,06,06,03,53,17.90
2015,06,06,03,54,17.90
2015,06,06,03,55,17.90
2015,06,06,03,56,17.90
2015,06,06,03,57,17.90
2015,06,06,03,58,17.90
2015,06,06,03,59,17.90
2015,06,06,04,00,18.00
2015,06,06,04,01,18.00
2015,06,06,04,02,18.00
2015,06,06,04,03,18.00
2015,06,06,04,04,18.10
2015,06,06,04,05,18.00
2015,06,06,04,06,18.10
2015,06,06,04,07,18.10
2015,06,06,04,08,18.10
2015,06,06,04,09,18.00
2015,06,06,04,10,18.00
2015,06,06,04,11,18.00
2015,06,06,04,12,18.00
2015,06,06,04,13,18.00
2015,06,06,04,14,18.00
2015,06,06,04,15,18.00
2015,06,06,04,16,18.00
2015,06,06,04,17,18.00
2015,06,06,04,18,17.90
2015,06,06,04,19,17.90
2015,06,06,04,20,17.90
2015,06,06,04,21,17.90
2015,06,06,04,22,17.90
2015,06,06,04,23,17.90
2015,06,06,04,24,17.90
2015,06,06,04,25,17.90
2015,06,06,04,26,17.90
2015,06,06,04,27,17.90
2015,06,06,04,28,17.90
2015,06,06,04,29,17.90
2015,06,06,04,30,17.90
2015,06,06,04,31,17.90
2015,06,06,04,32,17.90
2015,06,06,04,33,17.80
2015,06,06,04,34,17.80
2015,06,06,04,35,17.80
2015,06,06,04,36,17.80
2015,06,06,04,37,17.80
2015,06,06,04,38,17.80
2015,06,06,04,39,17.70
2015,06,06,04,40,17.70
2015,06,06,04,41,17.70
2015,06,06,04,42,17.70
2015,06,06,04,43,17.60
2015,06,06,04,44,17.60
2015,06,06,04,45,17.60
2015,06,06,04,46,17.50
2015,06,06,04,47,17.40
2015,06,06,04,48,17.40
2015,06,06,04,49,17.40
2015,06,06,04,50,17.30
2015,06,06,04,51,17.30
2015,06,06,04,52,17.20
2015,06,06,04,53,17.20
2015,06,06,04,54,17.20
2015,06,06,04,55,17.20
2015,06,06,04,56,17.20
2015,06,06,04,57,17.20
2015,06,06,04,58,17.20
2015,06,06,04,59,17.20
2015,06,06,05,00,17.20
2015,06,06,05,01,17.30
2015,06,06,05,02,17.30
2015,06,06,05,03,17.30
2015,06,06,05,04,17.30
2015,06,06,05,05,17.30
2015,06,06,05,06,17.30
2015,06,06,05,07,17.30
2015,06,06,05,08,17.30
2015,06,06,05,09,17.30
2015,06,06,05,10,17.30
2015,06,06,05,11,17.30
2015,06,06,05,12,17.20
2015,06,06,05,13,17.20
2015,06,06,05,14,17.20
2015,06,06,05,15,17.20
2015,06,06,05,16,17.20
2015,06,06,05,17,17.20
2015,06,06,05,18,17.20
2015,06,06,05,19,17.30
2015,06,06,05,20,17.30
2015,06,06,05,21,17.30
2015,06,06,05,22,17.30
2015,06,06,05,23,17.30
2015,06,06,05,24,17.30
2015,06,06,05,25,17.30
2015,06,06,05,26,17.30
2015,06,06,05,27,17.30
2015,06,06,05,28,17.30
2015,06,06,05,29,17.40
2015,06,06,05,30,17.40
2015,06,06,05,31,17.40
2015,06,06,05,32,17.40
2015,06,06,05,33,17.40
2015,06,06,05,34,17.40
2015,06,06,05,35,17.40
2015,06,06,05,36,17.40
2015,06,06,05,37,17.40
2015,06,06,05,38,17.40
2015,06,06,05,39,17.40
2015,06,06,05,40,17.40
2015,06,06,05,41,17.40
2015,06,06,05,42,17.40
2015,06,06,05,43,17.40
2015,06,06,05,44,17.40
2015,06,06,05,45,17.40
2015,06,06,05,46,17.40
2015,06,06,05,47,17.40
2015,06,06,05,48,17.40
2015,06,06,05,49,17.40
2015,06,06,05,50,17.40
2015,06,06,05,51,17.40
2015,06,06,05,52,17.40
2015,06,06,05,53,17.40
2015,06,06,05,54,17.40
2015,06,06,05,55,17.40
2015,06,06,05,56,17.40
2015,06,06,05,57,17.40
2015,06,06,05,58,17.40
2015,06,06,05,59,17.40
2015,06,06,06,00,17.40
2015,06,06,06,01,17.40
2015,06,06,06,02,17.40
2015,06,06,06,03,17.50
2015,06,06,06,04,17.50
2015,06,06,06,05,17.50
2015,06,06,06,06,17.60
2015,06,06,06,07,17.60
2015,06,06,06,08,17.60
2015,06,06,06,09,17.60
2015,06,06,06,10,17.60
2015,06,06,06,11,17.60
2015,06,06,06,12,17.60
2015,06,06,06,13,17.70
2015,06,06,06,14,17.70
2015,06,06,06,15,17.70
2015,06,06,06,16,17.70
2015,06,06,06,17,17.70
2015,06,06,06,18,17.80
2015,06,06,06,19,17.80
2015,06,06,06,20,17.80
2015,06,06,06,21,17.80
2015,06,06,06,22,17.80
2015,06,06,06,23,17.80
2015,06,06,06,24,17.80
2015,06,06,06,25,17.80
2015,06,06,06,26,17.80
2015,06,06,06,27,17.80
2015,06,06,06,28,17.80
2015,06,06,06,29,17.80
2015,06,06,06,30,17.80
2015,06,06,06,31,17.80
2015,06,06,06,32,17.80
2015,06,06,06,33,17.80
2015,06,06,06,34,17.80
2015,06,06,06,35,17.90
2015,06,06,06,36,17.90
2015,06,06,06,37,17.90
2015,06,06,06,38,17.90
2015,06,06,06,39,17.90
2015,06,06,06,40,17.90
2015,06,06,06,41,18.00
2015,06,06,06,42,18.00
2015,06,06,06,43,18.00
2015,06,06,06,44,18.10
2015,06,06,06,45,18.10
2015,06,06,06,46,18.10
2015,06,06,06,47,18.20
2015,06,06,06,48,18.20
2015,06,06,06,49,18.20
2015,06,06,06,50,18.20
2015,06,06,06,51,18.30
2015,06,06,06,52,18.30
2015,06,06,06,53,18.30
2015,06,06,06,54,18.30
2015,06,06,06,55,18.30
2015,06,06,06,56,18.30
2015,06,06,06,57,18.30
2015,06,06,06,58,18.30
2015,06,06,06,59,18.30
2015,06,06,07,00,18.30
2015,06,06,07,01,18.30
2015,06,06,07,02,18.30
2015,06,06,07,03,18.30
2015,06,06,07,04,18.40
2015,06,06,07,05,18.40
2015,06,06,07,06,18.40
2015,06,06,07,07,18.40
2015,06,06,07,08,18.40
2015,06,06,07,09,18.40
2015,06,06,07,10,18.40
2015,06,06,07,11,18.40
2015,06,06,07,12,18.40
2015,06,06,07,13,18.40
2015,06,06,07,14,18.40
2015,06,06,07,15,18.40
2015,06,06,07,16,18.40
2015,06,06,07,17,18.40
2015,06,06,07,18,18.30
2015,06,06,07,19,18.30
2015,06,06,07,20,18.30
2015,06,06,07,21,18.30
2015,06,06,07,22,18.30
2015,06,06,07,23,18.30
2015,06,06,07,24,18.30
2015,06,06,07,25,18.30
2015,06,06,07,26,18.30
2015,06,06,07,27,18.40
2015,06,06,07,28,18.40
2015,06,06,07,29,18.40
2015,06,06,07,30,18.40
2015,06,06,07,31,18.50
2015,06,06,07,32,18.50
2015,06,06,07,33,18.50
2015,06,06,07,34,18.60
2015,06,06,07,35,18.60
2015,06,06,07,36,18.60
2015,06,06,07,37,18.60
2015,06,06,07,38,18.60
2015,06,06,07,39,18.70
2015,06,06,07,40,18.70
2015,06,06,07,41,18.70
2015,06,06,07,42,18.80
2015,06,06,07,43,18.80
2015,06,06,07,44,18.80
2015,06,06,07,45,18.80
2015,06,06,07,46,18.80
2015,06,06,07,47,18.80
2015,06,06,07,48,18.90
2015,06,06,07,49,18.90
2015,06,06,07,50,18.90
2015,06,06,07,51,18.90
2015,06,06,07,52,18.90
2015,06,06,07,53,18.90
2015,06,06,07,54,18.90
2015,06,06,07,55,18.90
2015,06,06,07,56,18.90
2015,06,06,07,57,18.90
2015,06,06,07,58,18.90
2015,06,06,07,59,18.80
2015,06,06,08,00,18.70
2015,06,06,08,01,18.70
2015,06,06,08,02,18.70
2015,06,06,08,03,18.70
2015,06,06,08,04,18.70
2015,06,06,08,05,18.60
2015,06,06,08,06,18.60
2015,06,06,08,07,18.60
2015,06,06,08,08,18.60
2015,06,06,08,09,18.60
2015,06,06,08,10,18.70
2015,06,06,08,11,18.70
2015,06,06,08,12,18.70
2015,06,06,08,13,18.70
2015,06,06,08,14,18.70
2015,06,06,08,15,18.80
2015,06,06,08,16,18.80
2015,06,06,08,17,18.80
2015,06,06,08,18,18.80
2015,06,06,08,19,18.90
2015,06,06,08,20,18.90
2015,06,06,08,21,19.00
2015,06,06,08,22,19.00
2015,06,06,08,23,19.10
2015,06,06,08,24,19.10
2015,06,06,08,25,19.20
2015,06,06,08,26,19.20
2015,06,06,08,27,19.30
2015,06,06,08,28,19.30
2015,06,06,08,29,19.30
2015,06,06,08,30,19.30
2015,06,06,08,31,19.40
2015,06,06,08,32,19.40
2015,06,06,08,33,19.50
2015,06,06,08,34,19.50
2015,06,06,08,35,19.60
2015,06,06,08,36,19.70
2015,06,06,08,37,19.70
2015,06,06,08,38,19.60
2015,06,06,08,39,19.60
2015,06,06,08,40,19.60
2015,06,06,08,41,19.60
2015,06,06,08,42,19.60
2015,06,06,08,43,19.50
2015,06,06,08,44,19.50
2015,06,06,08,45,19.40
2015,06,06,08,46,19.40
2015,06,06,08,47,19.30
2015,06,06,08,48,19.30
2015,06,06,08,49,19.30
2015,06,06,08,50,19.30
2015,06,06,08,51,19.30
2015,06,06,08,52,19.30
2015,06,06,08,53,19.20
2015,06,06,08,54,19.20
2015,06,06,08,55,19.10
2015,06,06,08,56,19.00
2015,06,06,08,57,19.00
2015,06,06,08,58,18.90
2015,06,06,08,59,18.90
2015,06,06,09,00,18.80
2015,06,06,09,01,18.80
2015,06,06,09,02,18.80
2015,06,06,09,03,18.80
2015,06,06,09,04,18.90
2015,06,06,09,05,18.90
2015,06,06,09,06,19.00
2015,06,06,09,07,19.10
2015,06,06,09,08,19.20
2015,06,06,09,09,19.30
2015,06,06,09,10,19.30
2015,06,06,09,11,19.40
2015,06,06,09,12,19.50
2015,06,06,09,13,19.50
2015,06,06,09,14,19.60
2015,06,06,09,15,19.60
2015,06,06,09,16,19.60
2015,06,06,09,17,19.60
2015,06,06,09,18,19.70
2015,06,06,09,19,19.70
2015,06,06,09,20,19.70
2015,06,06,09,21,19.60
2015,06,06,09,22,19.60
2015,06,06,09,23,19.50
2015,06,06,09,24,19.50
2015,06,06,09,25,19.50
2015,06,06,09,26,19.50
2015,06,06,09,27,19.50
2015,06,06,09,28,19.50
2015,06,06,09,29,19.60
2015,06,06,09,30,19.60
2015,06,06,09,31,19.70
2015,06,06,09,32,19.70
2015,06,06,09,33,19.80
2015,06,06,09,34,19.80
2015,06,06,09,35,19.90
2015,06,06,09,36,19.90
2015,06,06,09,37,20.00
2015,06,06,09,38,20.00
2015,06,06,09,39,20.00
2015,06,06,09,40,19.90
2015,06,06,09,41,19.90
2015,06,06,09,42,19.80
2015,06,06,09,43,19.70
2015,06,06,09,44,19.70
2015,06,06,09,45,19.70
2015,06,06,09,46,19.70
2015,06,06,09,47,19.70
2015,06,06,09,48,19.80
2015,06,06,09,49,19.80
2015,06,06,09,50,19.80
2015,06,06,09,51,19.80
2015,06,06,09,52,19.80
2015,06,06,09,53,19.70
2015,06,06,09,54,19.70
2015,06,06,09,55,19.70
2015,06,06,09,56,19.60
2015,06,06,09,57,19.60
2015,06,06,09,58,19.60
2015,06,06,09,59,19.60
2015,06,06,10,00,19.50
2015,06,06,10,01,19.50
2015,06,06,10,02,19.50
2015,06,06,10,03,19.50
2015,06,06,10,04,19.40
2015,06,06,10,05,19.40
2015,06,06,10,06,19.30
2015,06,06,10,07,19.30
2015,06,06,10,08,19.30
2015,06,06,10,09,19.30
2015,06,06,10,10,19.30
2015,06,06,10,11,19.40
2015,06,06,10,12,19.40
2015,06,06,10,13,19.50
2015,06,06,10,14,19.60
2015,06,06,10,15,19.60
2015,06,06,10,16,19.70
2015,06,06,10,17,19.70
2015,06,06,10,18,19.70
2015,06,06,10,19,19.80
2015,06,06,10,20,19.80
2015,06,06,10,21,19.90
2015,06,06,10,22,19.90
2015,06,06,10,23,20.00
2015,06,06,10,24,20.00
2015,06,06,10,25,20.10
2015,06,06,10,26,20.10
2015,06,06,10,27,20.10
2015,06,06,10,28,20.10
2015,06,06,10,29,20.10
2015,06,06,10,30,20.00
2015,06,06,10,31,20.00
2015,06,06,10,32,19.90
2015,06,06,10,33,19.80
2015,06,06,10,34,19.80
2015,06,06,10,35,19.80
2015,06,06,10,36,19.70
2015,06,06,10,37,19.80
2015,06,06,10,38,19.80
2015,06,06,10,39,19.90
2015,06,06,10,40,20.00
2015,06,06,10,41,20.10
2015,06,06,10,42,20.10
2015,06,06,10,43,20.10
2015,06,06,10,44,20.10
2015,06,06,10,45,20.00
2015,06,06,10,46,20.00
2015,06,06,10,47,20.00
2015,06,06,10,48,20.00
2015,06,06,10,49,20.10
2015,06,06,10,50,20.10
2015,06,06,10,51,20.10
2015,06,06,10,52,20.10
2015,06,06,10,53,20.10
2015,06,06,10,54,20.00
2015,06,06,10,55,19.90
2015,06,06,10,56,19.90
2015,06,06,10,57,19.80
2015,06,06,10,58,19.70
2015,06,06,10,59,19.70
2015,06,06,11,00,19.60
2015,06,06,11,01,19.60
2015,06,06,11,02,19.60
2015,06,06,11,03,19.60
2015,06,06,11,04,19.60
2015,06,06,11,05,19.60
2015,06,06,11,06,19.70
2015,06,06,11,07,19.70
2015,06,06,11,08,19.70
2015,06,06,11,09,19.80
2015,06,06,11,10,19.90
2015,06,06,11,11,20.00
2015,06,06,11,12,20.00
2015,06,06,11,13,20.10
2015,06,06,11,14,20.20
2015,06,06,11,15,20.30
2015,06,06,11,16,20.40
2015,06,06,11,17,20.50
2015,06,06,11,18,20.60
2015,06,06,11,19,20.70
2015,06,06,11,20,20.70
2015,06,06,11,21,20.70
2015,06,06,11,22,20.70
2015,06,06,11,23,20.60
2015,06,06,11,24,20.50
2015,06,06,11,25,20.50
2015,06,06,11,26,20.50
2015,06,06,11,27,20.40
2015,06,06,11,28,20.30
2015,06,06,11,29,20.20
2015,06,06,11,30,20.10
2015,06,06,11,31,20.10
2015,06,06,11,32,20.10
2015,06,06,11,33,20.10
2015,06,06,11,34,20.10
2015,06,06,11,35,20.00
2015,06,06,11,36,20.00
2015,06,06,11,37,19.80
2015,06,06,11,38,19.70
2015,06,06,11,39,19.70
2015,06,06,11,40,19.70
2015,06,06,11,41,19.70
2015,06,06,11,42,19.80
2015,06,06,11,43,19.80
2015,06,06,11,44,19.80
2015,06,06,11,45,19.90
2015,06,06,11,46,19.90
2015,06,06,11,47,19.90
2015,06,06,11,48,19.80
2015,06,06,11,49,19.80
2015,06,06,11,50,19.90
2015,06,06,11,51,19.80
2015,06,06,11,52,19.80
2015,06,06,11,53,19.80
2015,06,06,11,54,19.80
2015,06,06,11,55,19.80
2015,06,06,11,56,19.80
2015,06,06,11,57,19.90
2015,06,06,11,58,19.90
2015,06,06,11,59,20.00
2015,06,06,12,00,20.00
2015,06,06,12,01,20.10
2015,06,06,12,02,20.10
2015,06,06,12,03,20.10
2015,06,06,12,04,20.10
2015,06,06,12,05,20.10
2015,06,06,12,06,20.10
2015,06,06,12,07,20.10
2015,06,06,12,08,20.20
2015,06,06,12,09,20.20
2015,06,06,12,10,20.20
2015,06,06,12,11,20.20
2015,06,06,12,12,20.10
2015,06,06,12,13,20.10
2015,06,06,12,14,20.10
2015,06,06,12,15,20.20
2015,06,06,12,16,20.20
2015,06,06,12,17,20.30
2015,06,06,12,18,20.30
2015,06,06,12,19,20.40
2015,06,06,12,20,20.40
2015,06,06,12,21,20.40
2015,06,06,12,22,20.40
2015,06,06,12,23,20.50
2015,06,06,12,24,20.50
2015,06,06,12,25,20.60
2015,06,06,12,26,20.50
2015,06,06,12,27,20.50
2015,06,06,12,28,20.50
2015,06,06,12,29,20.40
2015,06,06,12,30,20.30
2015,06,06,12,31,20.20
2015,06,06,12,32,20.10
2015,06,06,12,33,20.00
2015,06,06,12,34,19.90
2015,06,06,12,35,19.90
2015,06,06,12,36,19.90
2015,06,06,12,37,19.90
2015,06,06,12,38,20.00
2015,06,06,12,39,20.00
2015,06,06,12,40,20.10
2015,06,06,12,41,20.10
2015,06,06,12,42,20.20
2015,06,06,12,43,20.20
2015,06,06,12,44,20.30
2015,06,06,12,45,20.30
2015,06,06,12,46,20.40
2015,06,06,12,47,20.50
2015,06,06,12,48,20.70
2015,06,06,12,49,20.70
2015,06,06,12,50,20.80
2015,06,06,12,51,20.80
2015,06,06,12,52,20.80
2015,06,06,12,53,20.80
2015,06,06,12,54,20.80
2015,06,06,12,55,20.90
2015,06,06,12,56,20.90
2015,06,06,12,57,20.90
2015,06,06,12,58,20.90
2015,06,06,12,59,21.00
2015,06,06,13,00,21.00
2015,06,06,13,01,21.10
2015,06,06,13,02,21.10
2015,06,06,13,03,21.10
2015,06,06,13,04,21.20
2015,06,06,13,05,21.20
2015,06,06,13,06,21.20
2015,06,06,13,07,21.30
2015,06,06,13,08,21.30
2015,06,06,13,09,21.30
2015,06,06,13,10,21.40
2015,06,06,13,11,21.40
2015,06,06,13,12,21.40
2015,06,06,13,13,21.50
2015,06,06,13,14,21.50
2015,06,06,13,15,21.60
2015,06,06,13,16,21.60
2015,06,06,13,17,21.70
2015,06,06,13,18,21.70
2015,06,06,13,19,21.80
2015,06,06,13,20,21.80
2015,06,06,13,21,21.80
2015,06,06,13,22,21.70
2015,06,06,13,23,21.70
2015,06,06,13,24,21.70
2015,06,06,13,25,21.70
2015,06,06,13,26,21.70
2015,06,06,13,27,21.70
2015,06,06,13,28,21.80
2015,06,06,13,29,21.80
2015,06,06,13,30,21.90
2015,06,06,13,31,21.90
2015,06,06,13,32,22.00
2015,06,06,13,33,22.10
2015,06,06,13,34,22.10
2015,06,06,13,35,22.20
2015,06,06,13,36,22.30
2015,06,06,13,37,22.40
2015,06,06,13,38,22.50
2015,06,06,13,39,22.50
2015,06,06,13,40,22.60
2015,06,06,13,41,22.60
2015,06,06,13,42,22.60
2015,06,06,13,43,22.60
2015,06,06,13,44,22.60
2015,06,06,13,45,22.60
2015,06,06,13,46,22.60
2015,06,06,13,47,22.60
2015,06,06,13,48,22.60
2015,06,06,13,49,22.60
2015,06,06,13,50,22.60
2015,06,06,13,51,22.60
2015,06,06,13,52,22.60
2015,06,06,13,53,22.50
2015,06,06,13,54,22.50
2015,06,06,13,55,22.50
2015,06,06,13,56,22.40
2015,06,06,13,57,22.40
2015,06,06,13,58,22.40
2015,06,06,13,59,22.40
2015,06,06,14,00,22.40
2015,06,06,14,01,22.50
2015,06,06,14,02,22.50
2015,06,06,14,03,22.60
2015,06,06,14,04,22.60
2015,06,06,14,05,22.70
2015,06,06,14,06,22.70
2015,06,06,14,07,22.70
2015,06,06,14,08,22.80
2015,06,06,14,09,22.80
2015,06,06,14,10,22.90
2015,06,06,14,11,22.90
2015,06,06,14,12,23.00
2015,06,06,14,13,23.10
2015,06,06,14,14,23.10
2015,06,06,14,15,23.10
2015,06,06,14,16,23.00
2015,06,06,14,17,22.90
2015,06,06,14,18,22.80
2015,06,06,14,19,22.70
2015,06,06,14,20,22.60
2015,06,06,14,21,22.60
2015,06,06,14,22,22.50
2015,06,06,14,23,22.40
2015,06,06,14,24,22.40
2015,06,06,14,25,22.40
2015,06,06,14,26,22.40
2015,06,06,14,27,22.40
2015,06,06,14,28,22.50
2015,06,06,14,29,22.50
2015,06,06,14,30,22.50
2015,06,06,14,31,22.60
2015,06,06,14,32,22.60
2015,06,06,14,33,22.60
2015,06,06,14,34,22.70
2015,06,06,14,35,22.80
2015,06,06,14,36,22.80
2015,06,06,14,37,22.80
2015,06,06,14,38,22.80
2015,06,06,14,39,22.90
2015,06,06,14,40,23.00
2015,06,06,14,41,23.00
2015,06,06,14,42,23.00
2015,06,06,14,43,22.90
2015,06,06,14,44,22.90
2015,06,06,14,45,23.00
2015,06,06,14,46,23.00
2015,06,06,14,47,23.00
2015,06,06,14,48,23.00
2015,06,06,14,49,23.10
2015,06,06,14,50,23.10
2015,06,06,14,51,23.10
2015,06,06,14,52,23.10
2015,06,06,14,53,23.10
2015,06,06,14,54,23.20
2015,06,06,14,55,23.20
2015,06,06,14,56,23.20
2015,06,06,14,57,23.20
2015,06,06,14,58,23.20
2015,06,06,14,59,23.20
2015,06,06,15,00,23.20
2015,06,06,15,01,23.20
2015,06,06,15,02,23.20
2015,06,06,15,03,23.30
2015,06,06,15,04,23.40
2015,06,06,15,05,23.50
2015,06,06,15,06,23.60
2015,06,06,15,07,23.70
2015,06,06,15,08,23.80
2015,06,06,15,09,23.90
2015,06,06,15,10,24.00
2015,06,06,15,11,24.10
2015,06,06,15,12,24.20
2015,06,06,15,13,24.30
2015,06,06,15,14,24.40
2015,06,06,15,15,24.50
2015,06,06,15,16,24.50
2015,06,06,15,17,24.60
2015,06,06,15,18,24.50
2015,06,06,15,19,24.40
2015,06,06,15,20,24.40
2015,06,06,15,21,24.30
2015,06,06,15,22,24.30
2015,06,06,15,23,24.20
2015,06,06,15,24,24.20
2015,06,06,15,25,24.20
2015,06,06,15,26,24.20
2015,06,06,15,27,24.20
2015,06,06,15,28,24.20
2015,06,06,15,29,24.30
2015,06,06,15,30,24.30
2015,06,06,15,31,24.40
2015,06,06,15,32,24.50
2015,06,06,15,33,24.50
2015,06,06,15,34,24.50
2015,06,06,15,35,24.60
2015,06,06,15,36,24.60
2015,06,06,15,37,24.70
2015,06,06,15,38,24.70
2015,06,06,15,39,24.70
2015,06,06,15,40,24.70
2015,06,06,15,41,24.70
2015,06,06,15,42,24.80
2015,06,06,15,43,24.80
2015,06,06,15,44,24.70
2015,06,06,15,45,24.70
2015,06,06,15,46,24.80
2015,06,06,15,47,24.80
2015,06,06,15,48,24.70
2015,06,06,15,49,24.70
2015,06,06,15,50,24.70
2015,06,06,15,51,24.70
2015,06,06,15,52,24.70
2015,06,06,15,53,24.80
2015,06,06,15,54,24.80
2015,06,06,15,55,24.80
2015,06,06,15,56,24.90
2015,06,06,15,57,25.00
2015,06,06,15,58,25.10
2015,06,06,15,59,25.00
2015,06,06,16,00,25.00
2015,06,06,16,01,24.90
2015,06,06,16,02,24.90
2015,06,06,16,03,24.80
2015,06,06,16,04,24.80
2015,06,06,16,05,24.80
2015,06,06,16,06,24.70
2015,06,06,16,07,24.70
2015,06,06,16,08,24.70
2015,06,06,16,09,24.80
2015,06,06,16,10,24.80
2015,06,06,16,11,24.90
2015,06,06,16,12,25.00
2015,06,06,16,13,25.00
2015,06,06,16,14,25.10
2015,06,06,16,15,25.30
2015,06,06,16,16,25.30
2015,06,06,16,17,25.40
2015,06,06,16,18,25.50
2015,06,06,16,19,25.60
2015,06,06,16,20,25.60
2015,06,06,16,21,25.70
2015,06,06,16,22,25.80
2015,06,06,16,23,25.80
2015,06,06,16,24,25.80
2015,06,06,16,25,25.70
2015,06,06,16,26,25.60
2015,06,06,16,27,25.60
2015,06,06,16,28,25.50
2015,06,06,16,29,25.50
2015,06,06,16,30,25.50
2015,06,06,16,31,25.50
2015,06,06,16,32,25.50
2015,06,06,16,33,25.50
2015,06,06,16,34,25.50
2015,06,06,16,35,25.60
2015,06,06,16,36,25.70
2015,06,06,16,37,25.80
2015,06,06,16,38,25.80
2015,06,06,16,39,25.80
2015,06,06,16,40,25.80
2015,06,06,16,41,25.80
2015,06,06,16,42,25.80
2015,06,06,16,43,25.80
2015,06,06,16,44,25.80
2015,06,06,16,45,25.90
2015,06,06,16,46,25.90
2015,06,06,16,47,25.90
2015,06,06,16,48,25.80
2015,06,06,16,49,25.80
2015,06,06,16,50,25.80
2015,06,06,16,51,25.90
2015,06,06,16,52,25.90
2015,06,06,16,53,25.90
2015,06,06,16,54,25.90
2015,06,06,16,55,25.90
2015,06,06,16,56,25.90
2015,06,06,16,57,25.90
2015,06,06,16,58,25.90
2015,06,06,16,59,25.90
2015,06,06,17,00,25.90
2015,06,06,17,01,25.90
2015,06,06,17,02,25.90
2015,06,06,17,03,25.90
2015,06,06,17,04,25.90
2015,06,06,17,05,25.90
2015,06,06,17,06,25.90
2015,06,06,17,07,25.90
2015,06,06,17,08,25.80
2015,06,06,17,09,25.80
2015,06,06,17,10,25.80
2015,06,06,17,11,25.80
2015,06,06,17,12,25.90
2015,06,06,17,13,25.90
2015,06,06,17,14,25.90
2015,06,06,17,15,25.90
2015,06,06,17,16,25.80
2015,06,06,17,17,25.80
2015,06,06,17,18,25.80
2015,06,06,17,19,25.80